Tracking 19575 objects as of 19-Feb-2019
HD Live streaming from Space Station
objects crossing your sky now

NSTAR A

Track NSTAR A now!
NSTAR A is classified as:


NORAD ID: 23651
Int'l Code: 1995-044A
Perigee: 36,016.8 km
Apogee: 36,219.7 km
Inclination: 10.1 °
Period: 1,452.7 minutes
Semi major axis: 42489 km
RCS: 15.8489 m2 (large)
Launch date: August 29, 1995
Source: Japan (JPN)
Launch site: FRENCH GUIANA (FRGUI)

Voice and TV broadcast to Japan and neighboring region.
aabbcc
Your satellite tracking list
Your tracking list is empty




NASA's NSSDC Master Catalog

Two Line Element Set (TLE):
1 23651U 95044A   19050.03033455  .00000061  00000-0  00000+0 0  9993
2 23651  10.0815  38.9520 0023878 307.7951 234.1400  0.99125268 85448
Source of the keplerian elements: AFSPC